contact:dominique.lefevre@mio.osupytheas.fr, maurice.libes@osupytheas.fr, didier.mallarino@osupytheas.fr
Project:EMSO http://www.emso-fr.org/EMSO-France
Depth: 2436.0 m
Title:EMSO Ligure Ouest : Data MII capteur MICROCAT
DateTime_Computer,Latitude,Longitude,Temperature,Conductivity,Pressure,DateTime_Instrument
DateTime_Computer,Latitude,Longitude,degC,S m-1,dbar,DateTime_Instrument
2021-09-15T00:00:51Z,42.805,6.029,13.2993,4.60021,2470.52,2021-9-15T02:02:12Z
2021-09-15T00:03:54Z,42.805,6.029,13.2995,4.60021,2470.46,2021-9-15T02:05:15Z
2021-09-15T00:06:57Z,42.805,6.029,13.2992,4.60017,2470.46,2021-9-15T02:08:18Z
2021-09-15T00:10:00Z,42.805,6.029,13.2994,4.60026,2470.483,2021-9-15T02:11:21Z
2021-09-15T00:13:03Z,42.805,6.029,13.2993,4.60019,2470.474,2021-9-15T02:14:24Z
2021-09-15T00:16:07Z,42.805,6.029,13.2990,4.60029,2470.497,2021-9-15T02:17:28Z
2021-09-15T00:19:10Z,42.805,6.029,13.2995,4.60020,2470.46,2021-9-15T02:20:31Z
2021-09-15T00:22:13Z,42.805,6.029,13.2992,4.60025,2470.497,2021-9-15T02:23:34Z
2021-09-15T00:25:16Z,42.805,6.029,13.2991,4.60020,2470.483,2021-9-15T02:26:37Z
2021-09-15T00:28:19Z,42.805,6.029,13.2995,4.60024,2470.474,2021-9-15T02:29:40Z
2021-09-15T00:31:22Z,42.805,6.029,13.2997,4.60026,2470.497,2021-9-15T02:32:43Z
2021-09-15T00:34:25Z,42.805,6.029,13.2993,4.60016,2470.483,2021-9-15T02:35:46Z
2021-09-15T00:37:28Z,42.805,6.029,13.3008,4.60026,2470.52,2021-9-15T02:38:49Z
2021-09-15T00:40:32Z,42.805,6.029,13.3005,4.60025,2470.497,2021-9-15T02:41:52Z
2021-09-15T00:43:35Z,42.805,6.029,13.2991,4.60026,2470.46,2021-9-15T02:44:56Z
2021-09-15T00:46:38Z,42.805,6.029,13.2996,4.60025,2470.46,2021-9-15T02:47:59Z
2021-09-15T00:49:41Z,42.805,6.029,13.3000,4.60040,2470.483,2021-9-15T02:51:02Z
2021-09-15T00:52:44Z,42.805,6.029,13.2999,4.60033,2470.474,2021-9-15T02:54:05Z
2021-09-15T00:55:47Z,42.805,6.029,13.2994,4.60031,2470.483,2021-9-15T02:57:08Z
2021-09-15T00:58:50Z,42.805,6.029,13.3009,4.60029,2470.483,2021-9-15T03:00:11Z
2021-09-15T01:01:53Z,42.805,6.029,13.2997,4.60026,2470.483,2021-9-15T03:03:14Z
2021-09-15T01:04:57Z,42.805,6.029,13.2996,4.60026,2470.474,2021-9-15T03:06:17Z
2021-09-15T01:08:00Z,42.805,6.029,13.2991,4.60026,2470.483,2021-9-15T03:09:21Z
2021-09-15T01:11:03Z,42.805,6.029,13.2998,4.60021,2470.497,2021-9-15T03:12:24Z
2021-09-15T01:14:06Z,42.805,6.029,13.2998,4.60039,2470.46,2021-9-15T03:15:27Z
2021-09-15T01:17:09Z,42.805,6.029,13.2995,4.60026,2470.483,2021-9-15T03:18:30Z
2021-09-15T01:20:12Z,42.805,6.029,13.2991,4.60024,2470.474,2021-9-15T03:21:33Z
2021-09-15T01:23:15Z,42.805,6.029,13.2993,4.60035,2470.46,2021-9-15T03:24:36Z
2021-09-15T01:26:18Z,42.805,6.029,13.2990,4.60033,2470.497,2021-9-15T03:27:39Z
2021-09-15T01:29:21Z,42.805,6.029,13.2993,4.60019,2470.483,2021-9-15T03:30:42Z
2021-09-15T01:32:25Z,42.805,6.029,13.2997,4.60019,2470.52,2021-9-15T03:33:46Z
2021-09-15T01:35:28Z,42.805,6.029,13.2995,4.60022,2470.45,2021-9-15T03:36:49Z
2021-09-15T01:38:31Z,42.805,6.029,13.2998,4.60033,2470.474,2021-9-15T03:39:52Z
2021-09-15T01:41:34Z,42.805,6.029,13.2999,4.60033,2470.46,2021-9-15T03:42:55Z
2021-09-15T01:44:37Z,42.805,6.029,13.2995,4.60033,2470.483,2021-9-15T03:45:58Z
2021-09-15T01:47:40Z,42.805,6.029,13.2990,4.60019,2470.46,2021-9-15T03:49:01Z
2021-09-15T01:50:43Z,42.805,6.029,13.2994,4.60027,2470.483,2021-9-15T03:52:04Z
2021-09-15T01:53:46Z,42.805,6.029,13.2994,4.60025,2470.497,2021-9-15T03:55:07Z
2021-09-15T01:56:50Z,42.805,6.029,13.2991,4.60014,2470.46,2021-9-15T03:58:11Z
2021-09-15T01:59:53Z,42.805,6.029,13.2993,4.60015,2470.46,2021-9-15T04:01:14Z
2021-09-15T02:02:56Z,42.805,6.029,13.2987,4.60014,2470.52,2021-9-15T04:04:17Z
2021-09-15T02:05:59Z,42.805,6.029,13.2993,4.60021,2470.483,2021-9-15T04:07:20Z
2021-09-15T02:09:02Z,42.805,6.029,13.3006,4.60024,2470.507,2021-9-15T04:10:23Z
2021-09-15T02:12:05Z,42.805,6.029,13.2991,4.60028,2470.46,2021-9-15T04:13:26Z
2021-09-15T02:15:08Z,42.805,6.029,13.2998,4.60031,2470.52,2021-9-15T04:16:29Z
2021-09-15T02:18:11Z,42.805,6.029,13.3000,4.60024,2470.497,2021-9-15T04:19:32Z
2021-09-15T02:21:15Z,42.805,6.029,13.2996,4.60031,2470.46,2021-9-15T04:22:36Z
2021-09-15T02:24:18Z,42.805,6.029,13.3004,4.60022,2470.46,2021-9-15T04:25:39Z
2021-09-15T02:27:21Z,42.805,6.029,13.2996,4.60026,2470.497,2021-9-15T04:28:42Z
2021-09-15T02:30:24Z,42.805,6.029,13.2993,4.60021,2470.483,2021-9-15T04:31:45Z
2021-09-15T02:33:27Z,42.805,6.029,13.2993,4.60023,2470.483,2021-9-15T04:34:48Z
2021-09-15T02:36:30Z,42.805,6.029,13.2996,4.60019,2470.474,2021-9-15T04:37:51Z
2021-09-15T02:39:33Z,42.805,6.029,13.2991,4.60018,2470.46,2021-9-15T04:40:54Z
2021-09-15T02:42:36Z,42.805,6.029,13.2991,4.60020,2470.46,2021-9-15T04:43:57Z
2021-09-15T02:45:40Z,42.805,6.029,13.2990,4.60020,2470.446,2021-9-15T04:47:01Z
2021-09-15T02:48:43Z,42.805,6.029,13.2990,4.60024,2470.507,2021-9-15T04:50:04Z
2021-09-15T02:51:46Z,42.805,6.029,13.2996,4.60024,2470.474,2021-9-15T04:53:07Z
2021-09-15T02:54:49Z,42.805,6.029,13.2993,4.60014,2470.497,2021-9-15T04:56:10Z
2021-09-15T02:57:52Z,42.805,6.029,13.2990,4.60016,2470.46,2021-9-15T04:59:13Z
2021-09-15T03:00:55Z,42.805,6.029,13.2998,4.60028,2470.497,2021-9-15T05:02:16Z
2021-09-15T03:03:58Z,42.805,6.029,13.2990,4.60010,2470.474,2021-9-15T05:05:19Z
2021-09-15T03:07:01Z,42.805,6.029,13.2991,4.60018,2470.507,2021-9-15T05:08:22Z
2021-09-15T03:10:05Z,42.805,6.029,13.2993,4.60021,2470.483,2021-9-15T05:11:26Z
2021-09-15T03:13:08Z,42.805,6.029,13.2993,4.60021,2470.446,2021-9-15T05:14:29Z
2021-09-15T03:16:11Z,42.805,6.029,13.2994,4.60039,2470.507,2021-9-15T05:17:32Z
2021-09-15T03:19:14Z,42.805,6.029,13.2989,4.60019,2470.483,2021-9-15T05:20:35Z
2021-09-15T03:22:17Z,42.805,6.029,13.2991,4.60023,2470.483,2021-9-15T05:23:38Z
2021-09-15T03:25:20Z,42.805,6.029,13.2992,4.60016,2470.474,2021-9-15T05:26:41Z
2021-09-15T03:28:23Z,42.805,6.029,13.2996,4.60030,2470.46,2021-9-15T05:29:44Z
2021-09-15T03:31:26Z,42.805,6.029,13.2991,4.60022,2470.45,2021-9-15T05:32:47Z
2021-09-15T03:34:30Z,42.805,6.029,13.2993,4.60023,2470.483,2021-9-15T05:35:51Z
2021-09-15T03:37:33Z,42.805,6.029,13.2998,4.60023,2470.46,2021-9-15T05:38:54Z
2021-09-15T03:40:36Z,42.805,6.029,13.2991,4.60022,2470.483,2021-9-15T05:41:57Z
2021-09-15T03:43:39Z,42.805,6.029,13.2991,4.60034,2470.483,2021-9-15T05:45:00Z
2021-09-15T03:46:42Z,42.805,6.029,13.2997,4.60029,2470.483,2021-9-15T05:48:03Z
2021-09-15T03:49:45Z,42.805,6.029,13.2991,4.60011,2470.474,2021-9-15T05:51:06Z
2021-09-15T03:52:48Z,42.805,6.029,13.2991,4.60026,2470.497,2021-9-15T05:54:09Z
2021-09-15T03:55:51Z,42.805,6.029,13.2994,4.60016,2470.46,2021-9-15T05:57:12Z
2021-09-15T03:58:54Z,42.805,6.029,13.3000,4.60021,2470.483,2021-9-15T06:00:15Z
2021-09-15T04:01:58Z,42.805,6.029,13.2988,4.60014,2470.483,2021-9-15T06:03:19Z
2021-09-15T04:05:01Z,42.805,6.029,13.2993,4.60017,2470.474,2021-9-15T06:06:22Z
2021-09-15T04:08:04Z,42.805,6.029,13.2993,4.60036,2470.437,2021-9-15T06:09:25Z
2021-09-15T04:11:07Z,42.805,6.029,13.2999,4.60028,2470.497,2021-9-15T06:12:28Z
2021-09-15T04:14:10Z,42.805,6.029,13.2991,4.60019,2470.483,2021-9-15T06:15:31Z
2021-09-15T04:17:13Z,42.805,6.029,13.2993,4.60017,2470.497,2021-9-15T06:18:34Z
2021-09-15T04:20:16Z,42.805,6.029,13.2997,4.60024,2470.507,2021-9-15T06:21:37Z
2021-09-15T04:23:19Z,42.805,6.029,13.2992,4.60023,2470.483,2021-9-15T06:24:40Z
2021-09-15T04:26:23Z,42.805,6.029,13.2995,4.60022,2470.46,2021-9-15T06:27:44Z
2021-09-15T04:29:26Z,42.805,6.029,13.2996,4.60022,2470.46,2021-9-15T06:30:47Z
2021-09-15T04:32:29Z,42.805,6.029,13.2988,4.60016,2470.46,2021-9-15T06:33:50Z
2021-09-15T04:35:32Z,42.805,6.029,13.2987,4.60015,2470.437,2021-9-15T06:36:53Z
2021-09-15T04:38:35Z,42.805,6.029,13.2993,4.60026,2470.437,2021-9-15T06:39:56Z
2021-09-15T04:41:38Z,42.805,6.029,13.2994,4.60035,2470.474,2021-9-15T06:42:59Z
2021-09-15T04:44:41Z,42.805,6.029,13.2993,4.60025,2470.46,2021-9-15T06:46:02Z
2021-09-15T04:47:44Z,42.805,6.029,13.2992,4.60021,2470.46,2021-9-15T06:49:05Z
2021-09-15T04:50:48Z,42.805,6.029,13.2988,4.60011,2470.46,2021-9-15T06:52:09Z
2021-09-15T04:53:51Z,42.805,6.029,13.2997,4.60020,2470.437,2021-9-15T06:55:12Z
2021-09-15T04:56:54Z,42.805,6.029,13.2994,4.60013,2470.46,2021-9-15T06:58:15Z
2021-09-15T04:59:57Z,42.805,6.029,13.2991,4.60022,2470.46,2021-9-15T07:01:18Z
2021-09-15T05:03:00Z,42.805,6.029,13.2998,4.60020,2470.437,2021-9-15T07:04:21Z
2021-09-15T05:06:03Z,42.805,6.029,13.2991,4.60019,2470.437,2021-9-15T07:07:24Z
2021-09-15T05:09:06Z,42.805,6.029,13.2990,4.60010,2470.437,2021-9-15T07:10:27Z
2021-09-15T05:12:09Z,42.805,6.029,13.2989,4.60013,2470.437,2021-9-15T07:13:30Z
2021-09-15T05:15:13Z,42.805,6.029,13.2990,4.60020,2470.437,2021-9-15T07:16:34Z
2021-09-15T05:18:16Z,42.805,6.029,13.2997,4.60009,2470.427,2021-9-15T07:19:37Z
2021-09-15T05:21:19Z,42.805,6.029,13.2993,4.60017,2470.45,2021-9-15T07:22:40Z
2021-09-15T05:24:22Z,42.805,6.029,13.2994,4.60021,2470.46,2021-9-15T07:25:43Z
2021-09-15T05:27:25Z,42.805,6.029,13.2993,4.60022,2470.46,2021-9-15T07:28:46Z
2021-09-15T05:30:28Z,42.805,6.029,13.2993,4.60016,2470.45,2021-9-15T07:31:49Z
2021-09-15T05:33:31Z,42.805,6.029,13.2992,4.60018,2470.45,2021-9-15T07:34:52Z
2021-09-15T05:36:34Z,42.805,6.029,13.2993,4.60011,2470.427,2021-9-15T07:37:55Z
2021-09-15T05:39:38Z,42.805,6.029,13.2993,4.60017,2470.427,2021-9-15T07:40:59Z
2021-09-15T05:42:41Z,42.805,6.029,13.2993,4.60025,2470.45,2021-9-15T07:44:02Z
2021-09-15T05:45:44Z,42.805,6.029,13.2992,4.60015,2470.46,2021-9-15T07:47:05Z
2021-09-15T05:48:47Z,42.805,6.029,13.2990,4.60024,2470.474,2021-9-15T07:50:08Z
2021-09-15T05:51:50Z,42.805,6.029,13.2992,4.60016,2470.437,2021-9-15T07:53:11Z
2021-09-15T05:54:53Z,42.805,6.029,13.3003,4.60021,2470.427,2021-9-15T07:56:14Z
2021-09-15T05:57:56Z,42.805,6.029,13.2998,4.60017,2470.46,2021-9-15T07:59:17Z
2021-09-15T06:00:59Z,42.805,6.029,13.2995,4.60024,2470.474,2021-9-15T08:02:20Z
2021-09-15T06:04:02Z,42.805,6.029,13.2993,4.60023,2470.413,2021-9-15T08:05:23Z
2021-09-15T06:07:06Z,42.805,6.029,13.2998,4.60020,2470.46,2021-9-15T08:08:27Z
2021-09-15T06:10:09Z,42.805,6.029,13.2989,4.60019,2470.437,2021-9-15T08:11:30Z
2021-09-15T06:13:12Z,42.805,6.029,13.2993,4.60023,2470.427,2021-9-15T08:14:33Z
2021-09-15T06:16:15Z,42.805,6.029,13.2994,4.60024,2470.45,2021-9-15T08:17:36Z
2021-09-15T06:19:18Z,42.805,6.029,13.2997,4.60026,2470.427,2021-9-15T08:20:39Z
2021-09-15T06:22:21Z,42.805,6.029,13.2993,4.60026,2470.45,2021-9-15T08:23:42Z
2021-09-15T06:25:24Z,42.805,6.029,13.2990,4.60019,2470.427,2021-9-15T08:26:45Z
2021-09-15T06:28:27Z,42.805,6.029,13.2994,4.60025,2470.404,2021-9-15T08:29:48Z
2021-09-15T06:31:31Z,42.805,6.029,13.2997,4.60023,2470.437,2021-9-15T08:32:52Z
2021-09-15T06:34:34Z,42.805,6.029,13.2995,4.60024,2470.437,2021-9-15T08:35:55Z
2021-09-15T06:37:37Z,42.805,6.029,13.2991,4.60011,2470.45,2021-9-15T08:38:58Z
2021-09-15T06:40:40Z,42.805,6.029,13.2989,4.60015,2470.427,2021-9-15T08:42:01Z
2021-09-15T06:43:43Z,42.805,6.029,13.2993,4.60016,2470.427,2021-9-15T08:45:04Z
2021-09-15T06:46:46Z,42.805,6.029,13.2988,4.60011,2470.413,2021-9-15T08:48:07Z
2021-09-15T06:49:49Z,42.805,6.029,13.2993,4.60021,2470.404,2021-9-15T08:51:10Z
2021-09-15T06:52:52Z,42.805,6.029,13.2989,4.60019,2470.413,2021-9-15T08:54:13Z
2021-09-15T06:55:56Z,42.805,6.029,13.2993,4.60014,2470.427,2021-9-15T08:57:17Z
2021-09-15T06:58:59Z,42.805,6.029,13.2990,4.60017,2470.427,2021-9-15T09:00:20Z
2021-09-15T07:02:02Z,42.805,6.029,13.2993,4.60017,2470.39,2021-9-15T09:03:23Z
2021-09-15T07:05:05Z,42.805,6.029,13.2991,4.60016,2470.427,2021-9-15T09:06:26Z
2021-09-15T07:08:08Z,42.805,6.029,13.2990,4.60016,2470.404,2021-9-15T09:09:29Z
2021-09-15T07:11:11Z,42.805,6.029,13.2991,4.60019,2470.427,2021-9-15T09:12:32Z
2021-09-15T07:14:14Z,42.805,6.029,13.2990,4.60014,2470.474,2021-9-15T09:15:35Z
2021-09-15T07:17:17Z,42.805,6.029,13.2991,4.60016,2470.437,2021-9-15T09:18:38Z
2021-09-15T07:20:21Z,42.805,6.029,13.2988,4.60015,2470.413,2021-9-15T09:21:42Z
2021-09-15T07:23:24Z,42.805,6.029,13.2991,4.60017,2470.404,2021-9-15T09:24:45Z
2021-09-15T07:26:27Z,42.805,6.029,13.2991,4.60015,2470.39,2021-9-15T09:27:48Z
2021-09-15T07:29:30Z,42.805,6.029,13.2990,4.60015,2470.413,2021-9-15T09:30:51Z
2021-09-15T07:32:33Z,42.805,6.029,13.2997,4.60021,2470.413,2021-9-15T09:33:54Z
2021-09-15T07:35:36Z,42.805,6.029,13.2993,4.60021,2470.39,2021-9-15T09:36:57Z
2021-09-15T07:38:39Z,42.805,6.029,13.2992,4.60023,2470.413,2021-9-15T09:40:00Z
2021-09-15T07:41:42Z,42.805,6.029,13.2998,4.60015,2470.437,2021-9-15T09:43:03Z
2021-09-15T07:44:45Z,42.805,6.029,13.2993,4.60024,2470.404,2021-9-15T09:46:07Z
2021-09-15T07:47:49Z,42.805,6.029,13.2996,4.60021,2470.413,2021-9-15T09:49:10Z
2021-09-15T07:50:52Z,42.805,6.029,13.2990,4.60017,2470.45,2021-9-15T09:52:13Z
2021-09-15T07:53:55Z,42.805,6.029,13.2995,4.60038,2470.404,2021-9-15T09:55:16Z
2021-09-15T07:56:58Z,42.805,6.029,13.2995,4.60025,2470.437,2021-9-15T09:58:19Z
2021-09-15T08:00:01Z,42.805,6.029,13.2996,4.60024,2470.437,2021-9-15T10:01:22Z
2021-09-15T08:03:04Z,42.805,6.029,13.2995,4.60026,2470.413,2021-9-15T10:04:25Z
2021-09-15T08:06:07Z,42.805,6.029,13.2991,4.60015,2470.45,2021-9-15T10:07:28Z
2021-09-15T08:09:11Z,42.805,6.029,13.2990,4.60018,2470.413,2021-9-15T10:10:32Z
2021-09-15T08:12:14Z,42.805,6.029,13.2992,4.60013,2470.437,2021-9-15T10:13:35Z
2021-09-15T08:15:17Z,42.805,6.029,13.2991,4.60019,2470.427,2021-9-15T10:16:38Z
2021-09-15T08:18:20Z,42.805,6.029,13.2996,4.60022,2470.413,2021-9-15T10:19:41Z
2021-09-15T08:21:23Z,42.805,6.029,13.2991,4.60015,2470.413,2021-9-15T10:22:44Z
2021-09-15T08:24:26Z,42.805,6.029,13.2992,4.60017,2470.39,2021-9-15T10:25:47Z
2021-09-15T08:27:29Z,42.805,6.029,13.2990,4.60022,2470.413,2021-9-15T10:28:50Z
2021-09-15T08:30:32Z,42.805,6.029,13.2990,4.60018,2470.413,2021-9-15T10:31:53Z
2021-09-15T08:33:36Z,42.805,6.029,13.2993,4.60017,2470.39,2021-9-15T10:34:57Z
2021-09-15T08:36:39Z,42.805,6.029,13.2998,4.60021,2470.404,2021-9-15T10:38:00Z
2021-09-15T08:39:42Z,42.805,6.029,13.2995,4.60028,2470.46,2021-9-15T10:41:03Z
2021-09-15T08:42:45Z,42.805,6.029,13.2991,4.60014,2470.437,2021-9-15T10:44:06Z
2021-09-15T08:45:48Z,42.805,6.029,13.2994,4.60019,2470.437,2021-9-15T10:47:09Z
2021-09-15T08:48:51Z,42.805,6.029,13.2994,4.60023,2470.404,2021-9-15T10:50:12Z
2021-09-15T08:51:54Z,42.805,6.029,13.2998,4.60024,2470.413,2021-9-15T10:53:15Z
2021-09-15T08:54:57Z,42.805,6.029,13.2988,4.60017,2470.46,2021-9-15T10:56:18Z
2021-09-15T08:58:01Z,42.805,6.029,13.2997,4.60023,2470.39,2021-9-15T10:59:22Z
2021-09-15T09:01:04Z,42.805,6.029,13.2992,4.60005,2470.413,2021-9-15T11:02:25Z
2021-09-15T09:04:07Z,42.805,6.029,13.2987,4.60019,2470.45,2021-9-15T11:05:28Z
2021-09-15T09:07:10Z,42.805,6.029,13.2991,4.60024,2470.437,2021-9-15T11:08:31Z
2021-09-15T09:10:13Z,42.805,6.029,13.2998,4.60023,2470.413,2021-9-15T11:11:34Z
2021-09-15T09:13:16Z,42.805,6.029,13.2993,4.60019,2470.413,2021-9-15T11:14:37Z
2021-09-15T09:16:19Z,42.805,6.029,13.2996,4.60024,2470.45,2021-9-15T11:17:40Z
2021-09-15T09:19:22Z,42.805,6.029,13.2996,4.60024,2470.39,2021-9-15T11:20:43Z
2021-09-15T09:22:26Z,42.805,6.029,13.2999,4.60024,2470.45,2021-9-15T11:23:47Z
2021-09-15T09:25:29Z,42.805,6.029,13.2992,4.60021,2470.437,2021-9-15T11:26:50Z
2021-09-15T09:28:32Z,42.805,6.029,13.2995,4.60017,2470.437,2021-9-15T11:29:53Z
2021-09-15T09:31:35Z,42.805,6.029,13.2993,4.60019,2470.437,2021-9-15T11:32:56Z
2021-09-15T09:34:38Z,42.805,6.029,13.2996,4.60020,2470.45,2021-9-15T11:35:59Z
2021-09-15T09:37:41Z,42.805,6.029,13.2992,4.60026,2470.427,2021-9-15T11:39:02Z
2021-09-15T09:40:44Z,42.805,6.029,13.2993,4.60026,2470.437,2021-9-15T11:42:05Z
2021-09-15T09:43:47Z,42.805,6.029,13.2990,4.60028,2470.46,2021-9-15T11:45:08Z
2021-09-15T09:46:51Z,42.805,6.029,13.2996,4.60031,2470.46,2021-9-15T11:48:12Z
2021-09-15T09:49:54Z,42.805,6.029,13.2989,4.60018,2470.413,2021-9-15T11:51:15Z
2021-09-15T09:52:57Z,42.805,6.029,13.2994,4.60023,2470.413,2021-9-15T11:54:18Z
2021-09-15T09:56:00Z,42.805,6.029,13.2994,4.60016,2470.437,2021-9-15T11:57:21Z
2021-09-15T09:59:03Z,42.805,6.029,13.2994,4.60016,2470.427,2021-9-15T12:00:24Z
2021-09-15T10:02:06Z,42.805,6.029,13.2997,4.60023,2470.46,2021-9-15T12:03:27Z
2021-09-15T10:05:09Z,42.805,6.029,13.2996,4.60024,2470.437,2021-9-15T12:06:30Z
2021-09-15T10:08:12Z,42.805,6.029,13.2993,4.60019,2470.427,2021-9-15T12:09:33Z
2021-09-15T10:11:16Z,42.805,6.029,13.2998,4.60014,2470.474,2021-9-15T12:12:37Z
2021-09-15T10:14:19Z,42.805,6.029,13.2998,4.60025,2470.437,2021-9-15T12:15:40Z
2021-09-15T10:17:22Z,42.805,6.029,13.2996,4.60029,2470.45,2021-9-15T12:18:43Z
2021-09-15T10:20:25Z,42.805,6.029,13.2985,4.60011,2470.413,2021-9-15T12:21:46Z
2021-09-15T10:23:28Z,42.805,6.029,13.2999,4.60029,2470.46,2021-9-15T12:24:49Z
2021-09-15T10:26:31Z,42.805,6.029,13.2993,4.60022,2470.413,2021-9-15T12:27:52Z
2021-09-15T10:29:34Z,42.805,6.029,13.2988,4.60014,2470.45,2021-9-15T12:30:55Z
2021-09-15T10:32:38Z,42.805,6.029,13.2993,4.60020,2470.45,2021-9-15T12:33:59Z
2021-09-15T10:35:41Z,42.805,6.029,13.2992,4.60016,2470.427,2021-9-15T12:37:02Z
2021-09-15T10:38:44Z,42.805,6.029,13.2991,4.60015,2470.45,2021-9-15T12:40:05Z
2021-09-15T10:41:47Z,42.805,6.029,13.2995,4.60019,2470.46,2021-9-15T12:43:08Z
2021-09-15T10:44:50Z,42.805,6.029,13.2999,4.60023,2470.46,2021-9-15T12:46:11Z
2021-09-15T10:47:53Z,42.805,6.029,13.2990,4.60017,2470.46,2021-9-15T12:49:14Z
2021-09-15T10:50:56Z,42.805,6.029,13.2991,4.60021,2470.46,2021-9-15T12:52:17Z
2021-09-15T10:53:59Z,42.805,6.029,13.2994,4.60019,2470.413,2021-9-15T12:55:20Z
2021-09-15T10:57:03Z,42.805,6.029,13.2991,4.60023,2470.437,2021-9-15T12:58:24Z
2021-09-15T11:00:06Z,42.805,6.029,13.2988,4.60014,2470.474,2021-9-15T13:01:27Z
2021-09-15T11:03:09Z,42.805,6.029,13.2996,4.60019,2470.45,2021-9-15T13:04:30Z
2021-09-15T11:06:12Z,42.805,6.029,13.2993,4.60026,2470.437,2021-9-15T13:07:33Z
2021-09-15T11:09:15Z,42.805,6.029,13.2990,4.60019,2470.474,2021-9-15T13:10:36Z
2021-09-15T11:12:18Z,42.805,6.029,13.2990,4.60022,2470.46,2021-9-15T13:13:39Z
2021-09-15T11:15:21Z,42.805,6.029,13.2992,4.60016,2470.483,2021-9-15T13:16:42Z
2021-09-15T11:18:24Z,42.805,6.029,13.2992,4.60020,2470.46,2021-9-15T13:19:45Z
2021-09-15T11:21:28Z,42.805,6.029,13.2990,4.60016,2470.497,2021-9-15T13:22:49Z
2021-09-15T11:24:31Z,42.805,6.029,13.2991,4.60024,2470.483,2021-9-15T13:25:52Z
2021-09-15T11:27:34Z,42.805,6.029,13.2994,4.60016,2470.46,2021-9-15T13:28:55Z
2021-09-15T11:30:37Z,42.805,6.029,13.2997,4.60026,2470.474,2021-9-15T13:31:58Z
2021-09-15T11:33:40Z,42.805,6.029,13.2996,4.60024,2470.483,2021-9-15T13:35:01Z
2021-09-15T11:36:43Z,42.805,6.029,13.2992,4.60022,2470.497,2021-9-15T13:38:04Z
2021-09-15T11:39:46Z,42.805,6.029,13.3004,4.60030,2470.46,2021-9-15T13:41:07Z
2021-09-15T11:42:49Z,42.805,6.029,13.3000,4.60030,2470.46,2021-9-15T13:44:10Z
2021-09-15T11:45:53Z,42.805,6.029,13.2997,4.60027,2470.507,2021-9-15T13:47:14Z
2021-09-15T11:48:56Z,42.805,6.029,13.2993,4.60013,2470.46,2021-9-15T13:50:17Z
2021-09-15T11:51:59Z,42.805,6.029,13.2998,4.60029,2470.483,2021-9-15T13:53:20Z
2021-09-15T11:55:02Z,42.805,6.029,13.2991,4.60019,2470.53,2021-9-15T13:56:23Z
2021-09-15T11:58:05Z,42.805,6.029,13.2997,4.60026,2470.46,2021-9-15T13:59:26Z
2021-09-15T12:01:08Z,42.805,6.029,13.2993,4.60015,2470.483,2021-9-15T14:02:29Z
2021-09-15T12:04:11Z,42.805,6.029,13.2988,4.60009,2470.52,2021-9-15T14:05:32Z
2021-09-15T12:07:14Z,42.805,6.029,13.2994,4.60017,2470.497,2021-9-15T14:08:35Z
2021-09-15T12:10:18Z,42.805,6.029,13.2992,4.60014,2470.483,2021-9-15T14:11:39Z
2021-09-15T12:13:21Z,42.805,6.029,13.2991,4.60020,2470.497,2021-9-15T14:14:42Z
2021-09-15T12:16:24Z,42.805,6.029,13.2993,4.60022,2470.507,2021-9-15T14:17:45Z
2021-09-15T12:19:27Z,42.805,6.029,13.2995,4.60021,2470.497,2021-9-15T14:20:48Z
2021-09-15T12:22:30Z,42.805,6.029,13.3004,4.60023,2470.483,2021-9-15T14:23:51Z
2021-09-15T12:25:33Z,42.805,6.029,13.2992,4.60020,2470.483,2021-9-15T14:26:54Z
2021-09-15T12:28:36Z,42.805,6.029,13.2992,4.60015,2470.483,2021-9-15T14:29:57Z
2021-09-15T12:31:39Z,42.805,6.029,13.2992,4.60022,2470.507,2021-9-15T14:33:00Z
2021-09-15T12:34:43Z,42.805,6.029,13.2990,4.60025,2470.507,2021-9-15T14:36:04Z
2021-09-15T12:37:46Z,42.805,6.029,13.2989,4.60009,2470.507,2021-9-15T14:39:07Z
2021-09-15T12:40:49Z,42.805,6.029,13.2991,4.60018,2470.52,2021-9-15T14:42:10Z
2021-09-15T12:43:52Z,42.805,6.029,13.2988,4.60014,2470.507,2021-9-15T14:45:13Z
2021-09-15T12:46:55Z,42.805,6.029,13.2992,4.60009,2470.507,2021-9-15T14:48:16Z
2021-09-15T12:49:58Z,42.805,6.029,13.2992,4.60021,2470.53,2021-9-15T14:51:19Z
2021-09-15T12:53:01Z,42.805,6.029,13.2989,4.60021,2470.544,2021-9-15T14:54:22Z
2021-09-15T12:56:04Z,42.805,6.029,13.2996,4.60023,2470.53,2021-9-15T14:57:25Z
2021-09-15T12:59:08Z,42.805,6.029,13.2991,4.60022,2470.483,2021-9-15T15:00:29Z
2021-09-15T13:02:11Z,42.805,6.029,13.2991,4.60019,2470.52,2021-9-15T15:03:32Z
2021-09-15T13:05:14Z,42.805,6.029,13.2998,4.60021,2470.544,2021-9-15T15:06:35Z
2021-09-15T13:08:17Z,42.805,6.029,13.2995,4.60019,2470.53,2021-9-15T15:09:38Z
2021-09-15T13:11:20Z,42.805,6.029,13.2989,4.60010,2470.52,2021-9-15T15:12:41Z
2021-09-15T13:14:23Z,42.805,6.029,13.2991,4.60020,2470.53,2021-9-15T15:15:44Z
2021-09-15T13:17:26Z,42.805,6.029,13.2993,4.60019,2470.52,2021-9-15T15:18:47Z
2021-09-15T13:20:29Z,42.805,6.029,13.2991,4.60014,2470.544,2021-9-15T15:21:50Z
2021-09-15T13:23:33Z,42.805,6.029,13.2986,4.60019,2470.53,2021-9-15T15:24:54Z
2021-09-15T13:26:36Z,42.805,6.029,13.3002,4.60018,2470.53,2021-9-15T15:27:57Z
2021-09-15T13:29:39Z,42.805,6.029,13.2995,4.60036,2470.53,2021-9-15T15:31:00Z
2021-09-15T13:32:42Z,42.805,6.029,13.2997,4.60027,2470.53,2021-9-15T15:34:03Z
2021-09-15T13:35:45Z,42.805,6.029,13.2990,4.60020,2470.553,2021-9-15T15:37:06Z
2021-09-15T13:38:48Z,42.805,6.029,13.2994,4.60017,2470.553,2021-9-15T15:40:09Z
2021-09-15T13:41:51Z,42.805,6.029,13.2995,4.60019,2470.544,2021-9-15T15:43:12Z
2021-09-15T13:44:54Z,42.805,6.029,13.2994,4.60017,2470.544,2021-9-15T15:46:15Z
2021-09-15T13:47:58Z,42.805,6.029,13.3000,4.60036,2470.553,2021-9-15T15:49:19Z
2021-09-15T13:51:01Z,42.805,6.029,13.2993,4.60014,2470.553,2021-9-15T15:52:22Z
2021-09-15T13:54:04Z,42.805,6.029,13.2991,4.60013,2470.553,2021-9-15T15:55:25Z
2021-09-15T13:57:07Z,42.805,6.029,13.2998,4.60020,2470.53,2021-9-15T15:58:28Z
2021-09-15T14:00:10Z,42.805,6.029,13.2989,4.60016,2470.53,2021-9-15T16:01:31Z
2021-09-15T14:03:13Z,42.805,6.029,13.2990,4.60009,2470.53,2021-9-15T16:04:34Z
2021-09-15T14:06:16Z,42.805,6.029,13.2999,4.60028,2470.567,2021-9-15T16:07:37Z
2021-09-15T14:09:20Z,42.805,6.029,13.2993,4.60027,2470.553,2021-9-15T16:10:41Z
2021-09-15T14:12:23Z,42.805,6.029,13.3003,4.60027,2470.553,2021-9-15T16:13:44Z
2021-09-15T14:15:26Z,42.805,6.029,13.2996,4.60033,2470.591,2021-9-15T16:16:47Z
2021-09-15T14:18:29Z,42.805,6.029,13.2993,4.60022,2470.553,2021-9-15T16:19:50Z
2021-09-15T14:21:32Z,42.805,6.029,13.2993,4.60017,2470.567,2021-9-15T16:22:53Z
2021-09-15T14:24:35Z,42.805,6.029,13.2994,4.60017,2470.553,2021-9-15T16:25:56Z
2021-09-15T14:27:38Z,42.805,6.029,13.2990,4.60022,2470.52,2021-9-15T16:28:59Z
2021-09-15T14:30:41Z,42.805,6.029,13.2994,4.60019,2470.53,2021-9-15T16:32:02Z
2021-09-15T14:33:45Z,42.805,6.029,13.2992,4.60011,2470.553,2021-9-15T16:35:06Z
2021-09-15T14:36:48Z,42.805,6.029,13.2991,4.60019,2470.567,2021-9-15T16:38:09Z
2021-09-15T14:39:51Z,42.805,6.029,13.2990,4.60021,2470.591,2021-9-15T16:41:12Z
2021-09-15T14:42:54Z,42.805,6.029,13.2989,4.60026,2470.567,2021-9-15T16:44:15Z
2021-09-15T14:45:57Z,42.805,6.029,13.2996,4.60031,2470.577,2021-9-15T16:47:18Z
2021-09-15T14:49:00Z,42.805,6.029,13.3000,4.60025,2470.553,2021-9-15T16:50:21Z
2021-09-15T14:52:03Z,42.805,6.029,13.2993,4.60033,2470.544,2021-9-15T16:53:24Z
2021-09-15T14:55:06Z,42.805,6.029,13.2997,4.60039,2470.53,2021-9-15T16:56:27Z
2021-09-15T14:58:10Z,42.805,6.029,13.2996,4.60023,2470.53,2021-9-15T16:59:31Z
2021-09-15T15:01:13Z,42.805,6.029,13.2995,4.60022,2470.577,2021-9-15T17:02:34Z
2021-09-15T15:04:16Z,42.805,6.029,13.2993,4.60016,2470.577,2021-9-15T17:05:37Z
2021-09-15T15:07:19Z,42.805,6.029,13.2992,4.60033,2470.577,2021-9-15T17:08:40Z
2021-09-15T15:10:22Z,42.805,6.029,13.3000,4.60019,2470.567,2021-9-15T17:11:43Z
2021-09-15T15:13:25Z,42.805,6.029,13.2998,4.60022,2470.577,2021-9-15T17:14:46Z